Flag for Micronesia Weather past 2 weeks in Kolonia, Ponape, Micronesia

Now
84 °F

Mostly cloudy.


Feels Like: 93 °F
Forecast: 80 / 86 °F
Wind: 7 mph from Northeast

Location: Pohnpei

Current Time: Mar 2, 2015 at 4:24:49 PM

Latest Report: Mar 2, 2015 at 3:50 PM


Visibility: 15 mi

Pressure: 29.70 "Hg

Humidity: 76%

Dew point: 76 °F

Location of KoloniaLocation

Historic Weather in Kolonia — Graph

°F

Kolonia temperature yesterday

Maximum temperature yesterday: 84 °F (at 2:50 AM)
Minimum temperature yesterday: 75 °F (at 8:51 PM)
Average temperature yesterday: 79 °F

Past Weeks' High & Low Weather Summary

 TemperatureHumidityPressure
High89 °F (Feb 20, 1:55 PM)99% (Mar 1, 8:51 PM)29.90 "Hg (Mar 1, 8:51 PM)
Low74 °F (Feb 17, 10:50 AM)65% (Feb 16, 1:53 PM)29.72 "Hg (Mar 2, 2:50 PM)
Average81 °F83%29.81 "Hg
* Reported Feb 15 2:54 PM — Mar 2 2:50 PM, Kolonia, Weather by CustomWeather, © 2015

Note: Actual official high and low records may vary slightly from our data, if they occured in-between our weather recording intervals... More about our weather records

Advertising

Kolonia weather history for previous 24 hours

 ConditionsComfort  
Time TempWeatherWind HumidityBarometerVisibility
2:50 PM
Mon, Mar 2
84 °FMostly cloudy.9 mph77%29.72 "Hg15 mi
1:58 PM84 °FMostly cloudy.9 mph77%29.72 "Hg15 mi
12:50 PM85 °FMostly cloudy.9 mph75%29.76 "Hg15 mi
11:50 AM84 °FMostly cloudy.7 mph74%29.79 "Hg15 mi
10:50 AM84 °FPartly sunny.6 mph73%29.80 "Hg15 mi
9:50 AM84 °FPartly sunny.7 mph78%29.82 "Hg15 mi
8:50 AM83 °FMostly cloudy.9 mph78%29.82 "Hg15 mi
7:55 AM82 °FPartly sunny.8 mph79%29.80 "Hg15 mi
6:55 AM81 °FMostly cloudy.5 mph82%29.77 "Hg15 mi
4:55 AM82 °FMostly cloudy.6 mph79%29.74 "Hg15 mi
3:50 AM82 °FMostly cloudy.7 mph83%29.74 "Hg15 mi
2:53 AM80 °FMostly cloudy.8 mph88%29.73 "Hg15 mi
1:55 AM80 °FMostly cloudy.7 mph88%29.75 "Hg15 mi
12:55 AM79 °FMostly cloudy.6 mph87%29.78 "Hg15 mi
11:55 PM
Sun, Mar 1
77 °FMostly cloudy.No wind90%29.80 "Hg15 mi
10:53 PM76 °FLight rain. Mostly cloudy.3 mph96%29.83 "Hg14 mi
9:52 PM76 °FLight rain. Mostly cloudy.3 mph95%29.85 "Hg15 mi
8:51 PM75 °FSprinkles. Mostly cloudy.No wind99%29.85 "Hg14 mi
7:52 PM75 °FSprinkles. Mostly cloudy.3 mph98%29.84 "Hg7 mi
6:51 PM76 °FSprinkles. Mostly cloudy.5 mph96%29.83 "Hg5 mi
5:54 PM76 °FSprinkles. Mostly cloudy.5 mph98%29.80 "Hg7 mi
4:53 PM77 °FSprinkles. Mostly cloudy.3 mph95%29.78 "Hg7 mi
Weather by CustomWeather, © 2015

See weather overviewHow to use our weather pages